Regional Weather Roundup
Issued by NWS

Home | Current Version | Previous Version | Text Only | Print | Product List | Glossary On
Versions: 1 2 3 4 5 6 7 8 9 10 11 12 13 14 15 16 17 18 19 20 21 22 23 24 25 26 27 28 29 30 31 32 33 34 35 36 37 38 39 40 41 42 43 44 45 46 47 48 49 50
466
ASUS44 KJAN 221710
RWRMS

MISSISSIPPI HOURLY WEATHER ROUNDUP
NATIONAL WEATHER SERVICE JACKSON MS
1200 PM CDT MON SEP 22 2014

NOTE: "FAIR: INDICATES FEW OR NO CLOUDS BELOW 12,000 FEET WITH NO
SIGNIFICANT WEATHER AND/OR OBSTRUCTIONS TO VISIBILITY.

MSZ001>002-007>008-010>013-018>021-025>028-034>036-221800-
NORTHWEST MISSISSIPPI

CITY           SKY/WX    TMP DP  RH WIND       PRES   REMARKS
CLARKSDALE     FAIR      75  54  46 N12G22    30.21F
CLEVELAND      FAIR      77  53  43 NE13      30.18F
GREENWOOD      SUNNY     77  53  43 N16       30.17S
GREENVILLE     SUNNY     79  48  33 NE15G22   30.17S
GRENADA        FAIR      75  52  43 N8        30.19R
OLIVE BRANCH   MOSUNNY   70  54  56 N9        30.22S
OXFORD         FAIR      72  52  49 NE10      30.22S
TUNICA         SUNNY     73  54  49 N12G20    30.22F
$$

MSZ003>006-009-014>017-022>024-029>033-037>039-221800-
NORTHEAST MISSISSIPPI

CITY           SKY/WX    TMP DP  RH WIND       PRES   REMARKS
COLUMBUS AFB   SUNNY     77  51  39 N9G20     30.14F
CORINTH        FAIR      73  50  43 N14       30.19S
GOLDN TRIANGLE SUNNY     79  54  41 N13       30.15F
STARKVILLE     FAIR      75  50  41 N9G16     30.14F
TUPELO         SUNNY     74  51  44 NE13      30.17F
$$

MSZ040-058-221800-
CENTRAL MISSISSIPPI

CITY           SKY/WX    TMP DP  RH WIND       PRES   REMARKS
JACKSON INTL   SUNNY     82  55  39 N14       30.12F
JACKSON HAWKNS SUNNY     82  53  36 NE10      30.13F
MERIDIAN KEY   SUNNY     81  52  36 NE12      30.11S
MERIDIAN NAS   MOSUNNY   82  50  32 NE9       30.12S
RAYMOND        FAIR      79  73  83 NE7       30.13F
VICKSBURG      SUNNY     82  52  35 NE14      30.13F
$$

MSZ059>079-221800-
SOUTH MISSISSIPPI

CITY           SKY/WX    TMP DP  RH WIND       PRES   REMARKS
BROOKHAVEN     FAIR      79  57  47 N8G17     30.12F
COLUMBIA       FAIR      82  64  54 VRB7G16   30.07S
HATTIESBURG    MOSUNNY   84  67  56 N9        30.07F
MCCOMB         SUNNY     82  62  50 NE8G18    30.09S
NATCHEZ        CLOUDY    77  63  61 NE9       30.13S
PINE BELT      MOSUNNY   82  63  51 N9        30.10S
$$

MSZ080>082-221800-
COASTAL MISSISSIPPI

CITY           SKY/WX    TMP DP  RH WIND       PRES   REMARKS
BAY ST LOUIS   SUNNY     88  64  45 NW7       30.03F
BILOXI         SUNNY     89  66  46 VRB2      30.02F HX  91
PASCAGOULA     SUNNY     87  68  52 CALM      30.02F HX  90
GULFPORT       SUNNY     89  65  44 E3        30.02F HX  91
$$



USA.gov is the U.S. government's official web portal to all federal, state and local government web resources and services.